星链-30448 (STARLINK-30448 )

导读 | 星芒AI

STARLINK-30448 是 SpaceX Starlink 卫星互联网项目中的一颗低轨卫星,属于第 14 批组网发射的星群。该卫星于 2023 年发射,运行在约 550 公里的近地轨道,旨在为全球用户提供高速、低延迟的宽带互联网服务。作为 Starlink 网络的一部分,它与其他数千颗卫星协同工作,支持偏远地区的网络接入,并具备自动避障功能以减少空间碰撞风险。

基本信息
目录编号:
57928
目录名称:
STARLINK-30448
国际标识:
2023-147R
轨道中心:
EARTH
卫星名称:
星链-30448
卫星全名:
星链-30448 (STARLINK-30448 )
卫星状态:
在轨 (已飞行767 天)
发射日期:
2023-09-24 UTC
国别 :
美国 (US)
星等 :
--
轨道信息
数据来源 国际轨道数据
星历时间: 2025-10-30T08:33:25+0800
22小时前
查看轨道信息
半长轴: 6937.222km
偏心率: 0.0001189
轨道倾角: 43.001°
近地点辐角 274.342°
升交点赤经 315.946°
平近点角 85.729°
近地点: 558.262km
远地点: 559.912km
周期: 95.838分钟
每日圈数: 15.025344
详细信息
固有亮度:
5
最大亮度:
0.3
卫星平台:
Starlink v2.0 mini
覆盖范围:
全球
运营商:
太空探索技术公司
运营商所在国:
美国
制造商(研发单位):
太空探索技术公司
制造商所在国:
美国
使用方式:
暂无
卫星简介
星链(Starlink)计划是由太空探索技术公司(SpaceX)提出的一个巨型低轨卫星互联网星座项目,计划在2019年至2024年间在太空搭建由约1.2万颗卫星组成的“星链”网络,其中1584颗将部署在地球上空550千米处的近地轨道,并从2020年开始工作。该卫星仍在工作。
2D轨道图
3D轨道图
轨道高度分析图
轨道倾角分析图
轨道综合分析图
查看轨道综合分析图